User: anonymous   Login
Location: Unspecified
(0.0000°N, 0.0000°E)
Time: 23:43:09
(UTC+01:00)
Language:

Cosmos 2263 Rocket - Orbit

View from above orbital plane
View from above orbital plane
View from above satellite
View from above satellite

Ground track
Ground track

The orbit data is extracted from the following two-line orbital elements,

1 22803U 93059B   15062.40729667 -.00000179  00000-0 -65164-4 0  9991
2 22803 070.9893 212.6397 0018890 225.3732 134.5852 14.16701341109762
Epoch (UTC): 03 March 2015 09:46:30
Eccentricity: 0.0018890
inclination: 70.9893°
perigee height: 823 km
apogee height: 850 km
right ascension of ascending node: 212.6397°
argument of perigee: 225.3732°
revolutions per day: 14.16701341
mean anomaly at epoch: 134.5852°
orbit number at epoch: 10976

The dashed part of the orbit path shows where the satellite is in the earth's shadow,  

DLR